DMSP 5D-2 F13 DEB, 40416

Orbit data source: Space-Track

DMSP 5D-2 F13 DEB, 40416 is space debris in SSO originally from a launch on Fri, 24 Mar 1995 UTC launched from the Air Force Western Test Range (AFWTR). Debris objects in space refer to the collection of defunct objects orbiting the Earth. Examples of debris include non-operational satellites, rocket bodies, and fragments generated from explosions, collisions, or faulty payload assembly.

Loading next visibility...
Identifier
40416, 1995-015AD
Orbit
SSO
Country
Flag of USUS
Related business
Manufacturer
Unknown
Mission
Spacecraft
Bus & Motor
Unknown
Mass
Unknown
Launch date (UTC)
1995-03-24 (30 years ago)
Launch vehicle
Unknown
Launch site
Air Force Western Test Range (AFWTR)
Object type
Payload
Rocket body
Debris
Shape & HBR
Unknown
Radar Cross Section
Small (<0.1 m²)

Expand to show TLE details & history
Last TLE update: 20 hours ago

TLE from 20 hours ago
0 DMSP 5D-2 F13 DEB
1 40416U 95015AD  25245.31358585  .00004624  00000-0  19295-2 0  9995
2 40416  98.7642 266.1585 0004729 193.9639 166.1411 14.26689839544681
Epoch: 2025-09-02T07:31Z
TLE epoch observation values (Epoch: 2025-09-02T07:31:33.817Z)
Latitude
-0.00002°
Longitude
171.56099°
Altitude
809.036 km
Speed
7.447 km/s
True Right ascension
17h 44m 38s
True Declination
0° 00' 00"
Sunlit
Object was in daylight at epoch
Visualization orbit readout
Latitude
Unknown
Longitude
Unknown
Altitude
Unknown
Speed
Unknown
Apparent Right ascension
Unknown
Apparent Declination
Unknown
Sunlit
N/A
Visualization observer readout
Local Sidereal Time
19:26:35
Azimuth
Unknown
Elevation
Unknown
Doppler factor
Unknown
Orbital elements
Apogee altitude
803.364 km
Perigee altitude
796.574 km
Semi-major axis
7,178.106 km
Eccentricity
0.00047
Inclination
98.7642°
RAAN
266.1585°
Arg. of periapsis
193.9639°
True anomaly
166.15407°
Mean anomaly
166.1411°
Eccentric anomaly
166.14759°
Mean motion
3.56885 °/min
Orbital period
100.87 mins
BSTAR
0.0019295
Loading maneuver chart data...
Computing Atmospheric mass density...

Documentation

Showing up to 5 results
|